Regional Weather Roundup
Issued by NWS

Home | Current Version | Previous Version | Text Only | Print | Product List | Glossary On
Versions: 1 2 3 4 5 6 7 8 9 10 11 12 13 14 15 16 17 18 19 20 21 22 23 24 25 26 27 28 29 30 31 32 33 34 35 36 37 38 39 40 41 42 43 44 45 46 47 48 49 50
000
ASUS43 KMKX 010821
RWRWI

WISCONSIN REGIONAL WEATHER ROUNDUP
NATIONAL WEATHER SERVICE MILWAUKEE/SULLIVAN WI
300 AM CDT WED OCT 01 2014

NOTE: "FAIR" INDICATES FEW OR NO CLOUDS BELOW 12,000 FEET WITH NO
SIGNIFICANT WEATHER AND/OR OBSTRUCTIONS TO VISIBILITY.

WIZ001-002-006>008-014>016-023>028-010900-
NORTHWEST WISCONSIN

CITY           SKY/WX    TMP DP  RH WIND       PRES   REMARKS
SUPERIOR ARPT  CLOUDY    47  45  91 E3        29.91F
ASHLAND        MOCLDY    41  40  96 S3        29.96R
HAYWARD        CLOUDY    47  42  83 SE8       29.94F
SIREN          CLOUDY    48  42  80 SE12G20   29.90S
CUMBERLAND     CLOUDY    45  41  87 SE10G16   29.93F
RICE LAKE      CLOUDY    46  42  85 SE10      29.95F
CHETEK         CLOUDY    46  43  90 E10G18    29.95F
LADYSMITH      CLOUDY    47  43  87 SE13      29.99F
EAU CLAIRE     MOCLDY    47  42  83 SE6       29.95F
MENOMONIE      CLOUDY    48  43  84 E7        29.94F
NEW RICHMOND   MOCLDY    47  42  84 SE7       29.90F
OSCEOLA        MOCLDY    48  44  84 SE12      29.91F
$$

WIZ003>005-009-010-017-018-010900-
NORTH CENTRAL WISCONSIN

CITY           SKY/WX    TMP DP  RH WIND       PRES   REMARKS
MANITOWISH WTR CLOUDY    43  43 100 SE9G20    29.96F
ARBOR VITAE    CLOUDY    45  42  92 S8        29.97F
WOODRUFF       CLOUDY    45  42  92 S8        29.97F
RHINELANDER    CLOUDY    43  42  97 SE9       30.01S
EAGLE RIVER    CLOUDY    44  43  99 SE8       29.98S
LAND O LAKES   CLOUDY    45  44  97 S3        29.99S
PHILLIPS       CLOUDY    43  42  95 S12       29.98R
TOMAHAWK       CLOUDY    43  41  93 SE6       29.98F
MEDFORD        CLOUDY    43  43  97 S9        30.00R FOG
MERRILL        CLOUDY    44  43  98 S7        30.00S FOG
$$

WIZ029-030-035-036-043>047-010900-
CENTRAL WISCONSIN

CITY           SKY/WX    TMP DP  RH WIND       PRES   REMARKS
WAUSAU         CLOUDY    44  42  93 SE12      30.00S
MOSINEE        CLOUDY    43  43 100 SE7       30.01F FOG
MARSHFIELD     CLOUDY    46  43  89 SE14      30.00S
STEVENS POINT  CLOUDY    44  43  96 SE8       30.01F
WAUPACA        CLOUDY    49  47  93 CALM      30.01F FOG
WAUTOMA        NOT AVBL
WISC RAPIDS    CLOUDY    47  43  86 SE10      30.01F
CAMP DOUGLAS   CLOUDY    46  46 100 VRB5      29.99F
$$

WIZ011>013-019>022-031-037>040-048>050-010900-
NORTHEAST WISCONSIN

CITY           SKY/WX    TMP DP  RH WIND       PRES   REMARKS
ANTIGO         CLOUDY    43  43 100 S9        30.02S FOG
SHAWANO        CLOUDY    48  46  92 W3        30.04R FOG
OCONTO         CLOUDY    48  48 100 CALM      30.03F
STURGEON BAY   NOT AVBL
GREEN BAY      CLOUDY    48  47  96 CALM      30.03S FOG
MANITOWOC      NOT AVBL
APPLETON       CLOUDY    46  45  93 E3        30.03S FOG
CLINTONVILLE   CLOUDY    46  45  93 CALM      30.03S FOG
OSHKOSH        CLOUDY    50  49  96 SE5       30.02S FOG
$$

WIZ032>034-041-042-053>061-010900-
SOUTHWEST WISCONSIN

CITY           SKY/WX    TMP DP  RH WIND       PRES   REMARKS
LA CROSSE      CLOUDY    51  44  77 SE10      29.97S
SPARTA         CLOUDY    47  42  84 SE8       29.97F
VIROQUA        CLOUDY    46  46 100 SE10G17   29.96S
BOSCOBEL       CLOUDY    50  45  83 VRB6      29.98F
PRAIRIE DU CHI MOCLDY    48  44  84 E9G16     29.95F
PLATTEVILLE    CLOUDY    49  46  92 SE12G18   29.97F
$$

WIZ056-057-062-063-064-067-068-010900-
SOUTH CENTRAL WISCONSIN

CITY           SKY/WX    TMP DP  RH WIND       PRES   REMARKS
REEDSBURG      CLOUDY    47  45  91 SE6       29.98F
BARABOO/DELLS  CLOUDY    47  45  90 E6        29.99F
LONE ROCK      CLOUDY    52  45  77 SE5       29.99S
MINERAL POINT  CLOUDY    50  46  87 SE9       29.97F
MADISON        CLOUDY    49  45  86 E6        29.99F
MIDDLETON      CLOUDY    51  47  87 SE7       30.00S
WATERTOWN      CLOUDY    48  48 100 CALM      30.01S
MONROE         CLOUDY    50  46  87 E9        29.98F
JANESVILLE     CLOUDY    50  46  87 E5        29.98F
$$

WIZ051-052-058>065-066-070>072-010900-
SOUTHEAST WISCONSIN

CITY           SKY/WX    TMP DP  RH WIND       PRES   REMARKS
MILWAUKEE      CLOUDY    55  49  80 E6        30.00F
WAUKESHA       CLOUDY    46  46 100 CALM      30.01F
MILWAUKEE/TIMM CLOUDY    52  46  82 CALM      30.02S
RACINE         CLOUDY    57  47  69 SE9       30.02F
BURLINGTON     CLOUDY    49  48  98 CALM      30.00F
KENOSHA        CLOUDY    55  48  77 SE7       30.01S
FOND DU LAC    LGT RAIN  49  46  90 CALM      30.02F
SHEBOYGAN      NOT AVBL
WEST BEND      CLOUDY    48  46  93 CALM      30.01F
JUNEAU         CLOUDY    48  46  94 CALM      30.03S
$$

LSZ147-162-010900-
LAKE SUPERIOR

STATION/POSITION TIME  TEMP    WIND        PRES    WAVE
                       AIR SEA DIR/SP/G            HT/PER
                 (UTC) (F)     (DEG/KT/KT) (MB)    (FT/S)
W MID LAKE BUOY  0750   48 50  140/ 16/ 19 1014.4F   2/ 4
DEVILS ISLAND    0800   50     160/  5/  7 1014.6R
SAXON HARBOR     0700   39     170/  2/  4 1013.2F
$$

LMZ867-665-643>646-010900-
LAKE MICHIGAN

STATION/POSITION TIME  TEMP    WIND        PRES    WAVE
                       AIR SEA DIR/SP/G            HT/PER
                 (UTC) (F)     (DEG/KT/KT) (MB)    (FT/S)
CHAMBERS ISLAND  0700   53     120/  3/  4 1017.6S
S GREEN BAY BUOY 0800   53                 1017.7
N MID LAKE BUOY  0750   54 58  170/ 10/ 14 1017.6F   1/ 3
NORTHPORT PIER   0700   55     140/  9/ 12 1017.6S
SISTER BAY       0557             CALM       N/A
KEWAUNEE LAKESHO 0800   52     160/  6/  7 1015.9F
SHEBOYGAN LAKESH 0800   55 54  140/ 14/ 15 1016.6F
PORT WASHINGTON  0700   55     120/  5/  6 1017.3
ATWATER BUOY     0800   56     110/  8/ 10 1017.0F
MILWAUKEE LAKESH 0800   56      90/  8/ 10   N/A
S MID LAKE BUOY  0750   57 62  110/ 12/ 16 1016.4F   2/ 6
KENOSHA   LAKESH 0800   57     150/ 14/ 17 1015.9S
$$

TC  - TEMPERATURE IN CELSIUS
VSB - VISIBILITY IN STATUTE MILES
WCI - WIND CHILL INDEX
HX  - HEAT INDEX



USA.gov is the U.S. government's official web portal to all federal, state and local government web resources and services.